This is the latest recevied weather packets stored in our database for station/object PA1CD-13. If no packets are shown the sender has not sent any weather packets the latest 10 day(s).
| Time | Temp. | Humidity | Pressure | Rain* | Wind** | Luminosity | Snow |
|---|---|---|---|---|---|---|---|
| 1777561628 | 20° C | 35% | 1025.8 hPa | 0 mm | - | 552 W/m² | - |
| 1777561504 | 20° C | 34% | 1025.9 hPa | 0 mm | - | 557 W/m² | - |
| 1777561385 | 20° C | 34% | 1025.8 hPa | 0 mm | - | 561 W/m² | - |
| 1777561264 | 20° C | 34% | 1026 hPa | 0 mm | - | 564 W/m² | - |
| 1777561144 | 20° C | 33% | 1026 hPa | 0 mm | - | 570 W/m² | - |
| 1777561024 | 20° C | 33% | 1026 hPa | 0 mm | - | 573 W/m² | - |
| 1777560904 | 20° C | 36% | 1026 hPa | 0 mm | - | 589 W/m² | - |
| 1777560784 | 20° C | 34% | 1026 hPa | 0 mm | - | 589 W/m² | - |
| 1777560665 | 20° C | 33% | 1026 hPa | 0 mm | - | 589 W/m² | - |
| 1777560544 | 20° C | 35% | 1026.1 hPa | 0 mm | - | 589 W/m² | - |
| 1777560424 | 20° C | 34% | 1026 hPa | 0 mm | - | 593 W/m² | - |
| 1777560305 | 20° C | 35% | 1026.1 hPa | 0 mm | - | 605 W/m² | - |
| 1777560184 | 20° C | 35% | 1026.2 hPa | 0 mm | - | 605 W/m² | - |
| 1777560065 | 20° C | 36% | 1026.2 hPa | 0 mm | - | 610 W/m² | - |
| 1777559943 | 20° C | 36% | 1026.2 hPa | 0 mm | - | 610 W/m² | - |
| 1777559824 | 20° C | 33% | 1026.3 hPa | 0 mm | - | 615 W/m² | - |
| 1777559704 | 19.44° C | 31% | 1026.2 hPa | 0 mm | - | 619 W/m² | - |
| 1777559585 | 20° C | 31% | 1026.3 hPa | 0 mm | - | 624 W/m² | - |
| 1777559465 | 20° C | 31% | 1026.3 hPa | 0 mm | - | 626 W/m² | - |
| 1777559344 | 20° C | 30% | 1026.3 hPa | 0 mm | - | 612 W/m² | - |
| 1777559224 | 20° C | 30% | 1026.3 hPa | 0 mm | - | 612 W/m² | - |
| 1777559105 | 20° C | 33% | 1026.3 hPa | 0 mm | - | 623 W/m² | - |
| 1777558984 | 20° C | 33% | 1026.3 hPa | 0 mm | - | 644 W/m² | - |
| 1777558864 | 20° C | 33% | 1026.3 hPa | 0 mm | - | 644 W/m² | - |
| 1777558744 | 20° C | 35% | 1026.3 hPa | 0 mm | - | 647 W/m² | - |
* Rain latest hour (hover to see other rain measurements)
** Current wind speed in m/s (hover to see current wind gust speed)